Location: Stanford
(52.2833°N, 2.4333°W)
Time: 22:54:45
(UTC+00:00)

Meteor 2-15 Rocket - Pass Details

Date: 22 January 2021
Orbit: 940 x 955 km, 82.5° (Epoch: 01 March)

Event Time Altitude Azimuth Distance (km) Brightness Sun altitude
Rises 19:16:13 0° 349° (N) 3,646 7.6 -23.6°
Reaches altitude 10° 19:18:44 10° 351° (N) 2,697 6.9 -24.0°
Maximum altitude 19:24:55 75° 78° (ENE) 993 4.3 -24.9°
Enters shadow 19:28:41 25° 160° (SSE) 1,824 5.7 -25.5°
